Probability
3 6 19 23 26 26 29 32 26 39 42 42 42 45 45 42 42 48 48 42 42 39 35 45 45 48 48 52 55 58 55 55 55 52 48 39 48 58 48 52 45 48 48
0 10 19 26 26 35 29 32 29 29 29 45 45 45 42 39 35 35 39 42 35 29 26 32 35 42 52 58 48 55 58 58 58 45 45 45 48 48 52 52 55 61 48
0 10 19 29 26 29 39 35 39 29 39 42 45 48 45 39 39 39 42 42 39 39 39 42 42 39 42 48 55 52 48 55 45 45 45 32 39 45 42 42 48 55 52
0 6 16 26 29 29 39 29 32 35 39 35 32 39 39 35 39 39 29 35 42 35 35 39 39 35 35 39 42 39 32 35 32 32 29 29 29 39 42 45 42 42 45
0 10 23 29 29 29 29 29 26 35 32 29 32 26 26 29 29 32 32 35 32 29 35 35 29 29 32 29 29 29 29 19 19 19 10 32 39 42 35 39 35 42 32
10 10 26 32 29 26 26 35 32 32 29 35 29 26 23 23 26 29 32 32 29 16 23 23 29 19 19 16 23 23 16 13 16 16 13 26 39 39 26 29 32 35 32
16 19 19 29 26 32 32 32 29 29 26 26 26 23 16 23 29 26 23 16 19 19 19 16 23 19 13 16 19 23 13 13 13 19 16 19 26 26 26 32 32 29 39
16 16 16 23 29 29 29 35 32 32 29 35 26 16 16 13 13 19 16 13 16 16 16 16 16 16 10 16 19 19 13 16 6 6 16 19 26 19 26 32 32 29 32
19 16 13 10 23 26 26 26 26 29 26 19 19 16 19 19 23 10 10 10 10 16 16 16 13 16 13 13 13 10 6 10 13 13 10 13 19 23 23 32 29 32 32
16 13 16 13 13 16 16 19 23 23 19 16 13 16 16 16 16 13 13 10 10 13 13 16 16 10 10 13 6 10 6 3 0 3 10 6 19 23 26 32 23 32 32
16 16 16 13 10 13 13 10 13 19 6 10 10 10 10 10 10 13 10 16 10 3 6 10 10 10 13 13 6 10 3 0 3 3 13 10 16 19 16 13 19 19 26
13 13 13 10 6 10 6 10 10 6 10 6 3 10 10 10 10 10 6 10 6 6 10 6 6 10 6 0 3 6 3 0 3 3 10 10 13 16 16 13 13 13 16
6 6 13 13 10 6 10 6 10 13 10 10 3 3 10 10 10 10 10 10 6 6 3 6 0 3 3 3 0 0 3 3 10 10 6 10 10 6 3 6 6 6 10
10 10 13 6 10 10 6 6 6 3 10 13 10 6 10 10 10 10 10 6 3 3 3 3 10 3 3 3 3 3 3 3 10 10 10 3 10 3 0 0 6 6 6
6 10 6 6 6 10 10 10 3 3 3 10 13 3 10 10 10 10 10 3 3 6 3 10 6 6 6 6 3 6 0 0 3 6 10 6 6 3 3 3 3 6 6
6 10 6 6 6 10 10 6 3 3 10 3 6 6 3 10 10 3 3 3 3 6 3 3 3 10 6 6 6 3 6 6 3 6 10 6 3 3 0 3 3 3 3
6 6 10 10 10 10 6 6 3 0 3 6 6 3 3 3 3 3 3 3 3 3 0 3 3 3 3 3 0 0 6 6 6 3 6 6 3 3 3 0 3 6 6
6 6 3 6 10 13 10 13 6 0 3 6 10 3 3 0 3 3 3 3 3 3 0 3 3 0 3 6 3 3 6 6 6 6 6 3 3 3 0 3 0 0 6
10 10 10 6 10 10 13 13 6 3 10 3 0 0 3 3 3 3 3 3 3 3 3 0 3 0 3 6 3 0 0 6 3 3 0 0 3 3 0 0 0 0 3
6 6 6 3 6 6 10 6 6 3 6 10 6 0 0 6 6 3 3 3 3 3 6 6 3 3 3 6 0 0 0 0 3 3 0 0 0 0 0 0 0 0 0
10 6 3 3 6 3 10 6 6 6 6 6 6 3 3 6 6 6 3 3 3 3 3 3 3 3 3 3 3 0 0 0 0 3 0 0 0 0 0 0 0 0 0
10 10 3 3 6 3 3 3 3 3 3 3 10 10 6 6 6 3 3 3 3 6 3 3 6 3 3 6 3 3 3 3 0 0 3 0 0 0 0 0 0 0 0
10 10 6 6 6 3 3 3 3 3 6 6 10 13 13 6 6 6 6 6 6 6 6 6 6 3 10 6 6 6 3 3 3 3 0 0 0 0 0 0 0 0 0
6 6 6 6 10 6 6 3 6 6 6 6 10 10 6 10 10 10 10 10 6 6 6 6 3 3 3 6 6 6 0 0 0 3 0 0 0 0 0 0 0 0 0
3 3 3 10 10 10 10 10 10 6 6 6 10 10 6 10 10 10 10 6 6 6 6 3 6 6 0 0 0 3 3 3 3 0 0 0 0 0 0 0 0 0 0
6 6 6 6 10 10 10 6 10 6 6 6 10 10 10 10 6 6 3 6 6 3 3 3 3 3 0 0 0 0 3 0 0 0 0 0 0 0 0 0 0 0 0
Height
5876 5876 5876 5876 5876 5876 5876 5876 5876 5877 5876 5877 5877 5877 5877 5877 5877 5877 5877 5877 5876 5876 5876 5876 5876 5876 5876 5876 5876 5876 5876 5875 5875 5875 5875 5875 5874 5874 5874 5874 5874 5873 5873
5875 5875 5875 5875 5876 5876 5876 5876 5876 5876 5876 5876 5876 5876 5876 5876 5876 5876 5876 5875 5875 5875 5875 5875 5875 5875 5875 5875 5874 5874 5874 5874 5874 5874 5874 5873 5873 5873 5873 5872 5872 5872 5871
5874 5874 5874 5875 5875 5875 5875 5875 5875 5875 5875 5875 5875 5875 5875 5875 5875 5875 5875 5875 5874 5874 5874 5874 5874 5873 5873 5873 5873 5873 5872 5873 5872 5872 5872 5872 5871 5871 5871 5871 5871 5870 5870
5873 5873 5873 5873 5874 5874 5874 5874 5874 5874 5874 5874 5874 5874 5874 5874 5874 5874 5873 5873 5873 5873 5872 5872 5872 5872 5872 5872 5871 5871 5871 5871 5870 5870 5870 5870 5870 5869 5869 5869 5869 5868 5868
5872 5872 5872 5872 5872 5872 5873 5873 5873 5873 5873 5873 5873 5873 5873 5872 5872 5872 5872 5872 5871 5871 5871 5870 5870 5870 5870 5870 5870 5869 5869 5869 5868 5868 5868 5868 5867 5867 5867 5867 5867 5866 5866
5870 5870 5870 5870 5871 5871 5871 5871 5872 5871 5871 5871 5871 5871 5871 5871 5870 5870 5870 5870 5870 5869 5869 5868 5868 5868 5868 5868 5867 5867 5867 5866 5866 5866 5865 5865 5865 5865 5865 5865 5864 5864 5863
5868 5868 5868 5869 5869 5869 5869 5870 5870 5869 5869 5870 5869 5869 5869 5869 5868 5868 5868 5868 5868 5867 5867 5867 5866 5866 5866 5865 5865 5864 5864 5864 5863 5863 5863 5862 5862 5862 5862 5862 5862 5861 5861
5866 5866 5866 5867 5867 5867 5867 5868 5868 5868 5868 5868 5867 5867 5867 5867 5866 5866 5866 5866 5866 5865 5865 5864 5864 5864 5864 5863 5863 5862 5862 5861 5861 5860 5860 5860 5859 5859 5859 5859 5858 5858 5858
5864 5864 5864 5865 5865 5865 5865 5866 5866 5866 5866 5866 5865 5865 5865 5865 5864 5864 5864 5864 5863 5863 5863 5862 5862 5861 5861 5860 5860 5859 5859 5858 5857 5857 5857 5857 5856 5856 5856 5855 5855 5855 5855
5862 5862 5863 5863 5863 5863 5863 5864 5864 5864 5863 5863 5863 5863 5863 5862 5862 5862 5862 5862 5861 5861 5860 5860 5859 5858 5858 5857 5857 5856 5856 5855 5854 5854 5853 5853 5853 5853 5852 5852 5852 5852 5852
5860 5860 5861 5861 5861 5861 5861 5861 5861 5861 5861 5861 5861 5860 5860 5860 5860 5860 5860 5859 5859 5858 5858 5857 5856 5856 5855 5854 5853 5853 5852 5851 5851 5850 5850 5850 5849 5849 5849 5848 5848 5848 5848
5859 5859 5859 5859 5858 5858 5858 5858 5859 5859 5859 5859 5858 5858 5858 5858 5857 5857 5857 5857 5856 5856 5855 5854 5854 5853 5852 5851 5850 5849 5847 5847 5847 5846 5846 5846 5846 5845 5845 5845 5845 5844 5844
5856 5856 5856 5856 5856 5856 5856 5856 5856 5856 5856 5856 5855 5855 5855 5855 5855 5854 5854 5854 5853 5853 5852 5851 5851 5850 5849 5848 5846 5845 5844 5843 5843 5842 5842 5841 5842 5841 5841 5841 5841 5841 5841
5854 5854 5854 5854 5854 5854 5853 5853 5853 5853 5853 5853 5852 5852 5852 5852 5852 5851 5851 5851 5850 5849 5849 5848 5847 5846 5845 5844 5843 5841 5840 5839 5838 5837 5837 5837 5837 5837 5837 5837 5837 5837 5837
5852 5852 5851 5851 5851 5851 5851 5851 5850 5850 5850 5849 5849 5849 5849 5849 5848 5848 5848 5847 5847 5846 5845 5845 5844 5843 5842 5840 5839 5837 5836 5835 5833 5833 5833 5833 5833 5833 5833 5833 5833 5833 5833
5849 5849 5849 5848 5848 5848 5848 5848 5847 5847 5847 5846 5846 5846 5845 5845 5845 5845 5844 5844 5843 5843 5842 5841 5840 5840 5838 5837 5835 5834 5832 5831 5830 5829 5829 5829 5829 5829 5829 5829 5829 5828 5828
5846 5846 5846 5845 5845 5845 5845 5845 5844 5844 5843 5843 5842 5842 5842 5841 5841 5841 5841 5840 5839 5839 5838 5838 5837 5836 5835 5834 5832 5830 5829 5827 5826 5826 5826 5826 5826 5825 5825 5824 5824 5823 5824
5843 5843 5843 5842 5842 5842 5842 5841 5841 5840 5840 5839 5839 5838 5838 5838 5838 5837 5837 5836 5836 5835 5834 5834 5833 5833 5831 5830 5829 5827 5825 5824 5823 5822 5822 5822 5822 5821 5821 5820 5820 5820 5819
5840 5840 5840 5840 5839 5839 5838 5838 5837 5837 5836 5836 5835 5835 5834 5834 5834 5834 5833 5833 5832 5831 5831 5830 5829 5829 5827 5826 5825 5824 5822 5821 5820 5819 5819 5818 5818 5817 5817 5816 5815 5815 5815
5838 5837 5837 5836 5836 5835 5835 5834 5834 5833 5832 5832 5831 5831 5830 5830 5830 5829 5829 5829 5828 5827 5827 5826 5825 5824 5824 5823 5822 5820 5819 5818 5817 5816 5815 5814 5813 5813 5812 5811 5811 5810 5810
5835 5834 5834 5833 5833 5832 5831 5831 5830 5829 5829 5828 5827 5827 5826 5826 5825 5825 5825 5824 5824 5823 5823 5822 5821 5820 5820 5819 5818 5817 5815 5814 5813 5812 5811 5810 5809 5808 5807 5806 5806 5805 5805
5832 5831 5830 5830 5829 5829 5828 5827 5826 5826 5825 5824 5823 5822 5822 5821 5821 5821 5820 5820 5819 5819 5818 5818 5817 5816 5815 5815 5814 5813 5812 5811 5809 5808 5807 5806 5805 5804 5803 5802 5801 5800 5800
5828 5828 5827 5826 5826 5825 5824 5823 5822 5821 5821 5820 5819 5818 5817 5817 5816 5816 5816 5815 5815 5815 5814 5813 5813 5812 5811 5810 5809 5809 5808 5806 5805 5803 5802 5801 5800 5799 5798 5797 5796 5795 5795
5825 5824 5824 5823 5822 5821 5820 5819 5818 5817 5816 5815 5814 5814 5813 5812 5812 5811 5811 5810 5810 5809 5809 5808 5808 5807 5806 5806 5804 5803 5803 5802 5801 5800 5798 5797 5796 5795 5794 5793 5792 5791 5789
5821 5821 5820 5819 5817 5816 5815 5814 5813 5812 5811 5810 5809 5809 5808 5807 5807 5807 5806 5806 5805 5804 5804 5803 5803 5802 5801 5801 5800 5799 5798 5797 5796 5795 5794 5793 5791 5790 5789 5788 5787 5786 5784
5817 5816 5816 5814 5813 5812 5811 5810 5809 5807 5806 5805 5805 5804 5803 5802 5802 5801 5801 5800 5800 5799 5798 5798 5797 5797 5796 5796 5795 5794 5793 5792 5791 5790 5789 5788 5786 5785 5784 5783 5782 5781 5780
Wind_Speed
5 5 5 5 4 3 3 3 3 4 4 3 3 4 4 4 4 4 5 4 4 4 4 4 4 5 5 6 6 6 6 6 7 7 7 7 7 7 7 8 8 8 8
5 5 5 5 5 4 4 4 4 4 4 4 4 4 4 5 5 5 5 5 4 4 4 5 5 6 7 7 7 7 8 8 8 8 8 8 8 9 9 9 9 9 9
6 6 6 6 6 5 5 5 5 5 5 5 5 6 6 6 6 6 6 6 5 5 5 6 7 7 8 8 8 9 9 9 9 9 10 10 10 10 10 10 10 10 10
7 7 7 7 7 7 6 6 5 5 6 6 7 7 7 6 7 7 7 7 7 7 7 7 8 8 8 9 9 10 10 10 10 10 11 11 11 11 11 11 11 11 12
8 8 8 9 9 9 8 7 7 7 7 7 8 8 8 8 8 8 8 7 7 8 8 9 9 9 9 9 10 11 11 12 12 12 12 12 12 12 12 12 12 12 12
9 9 9 10 10 11 10 9 8 8 8 8 9 9 8 9 9 9 8 8 8 9 8 9 9 9 9 10 11 12 11 12 12 13 12 13 13 12 13 13 13 13 13
9 10 10 10 11 11 10 10 10 10 10 9 10 10 10 10 10 10 10 9 9 8 9 9 9 10 9 10 11 12 12 13 13 13 13 13 14 13 13 13 14 14 14
9 10 11 11 11 11 11 11 11 11 11 10 10 10 10 10 10 10 10 10 9 9 9 10 10 10 11 11 11 12 13 14 15 14 14 14 14 14 15 15 15 15 15
10 10 11 12 12 12 11 11 11 11 11 11 11 11 11 11 11 10 10 10 10 10 10 10 11 11 12 12 12 13 14 15 15 15 15 15 15 15 15 15 15 16 16
10 10 11 12 12 12 12 12 12 12 12 12 12 12 12 12 11 11 11 11 11 11 12 12 12 12 12 13 14 14 15 15 16 15 15 16 16 16 16 16 16 17 16
11 11 11 12 12 12 12 12 13 13 13 13 12 12 12 12 12 12 12 12 12 12 13 14 14 13 13 14 15 15 15 15 16 16 16 15 16 16 16 17 17 17 17
10 11 11 12 12 12 12 13 13 14 13 13 13 13 13 13 13 13 13 13 13 13 13 14 14 14 14 15 15 16 16 16 16 16 16 16 16 16 17 17 17 17 17
10 10 11 11 11 11 12 12 13 14 14 14 14 13 14 14 14 14 13 13 14 13 13 14 14 14 14 15 15 16 16 17 17 17 17 17 17 17 17 17 17 18 17
11 11 11 11 11 12 12 13 13 13 14 15 15 15 14 15 15 15 15 14 14 14 14 15 15 15 15 15 16 16 16 17 18 17 17 18 17 17 17 17 17 18 18
11 12 12 12 12 12 13 13 14 14 14 15 16 16 15 15 16 16 16 15 15 15 15 16 16 16 16 16 16 17 17 17 17 17 17 17 17 17 18 18 19 19 18
11 11 12 13 13 13 13 14 14 14 14 14 14 15 15 16 16 15 16 16 16 16 16 16 16 16 16 16 16 16 16 15 15 15 15 16 17 18 18 19 20 19 19
11 11 12 12 13 13 13 13 14 14 15 15 15 15 15 15 15 14 15 15 15 15 15 16 16 16 16 16 15 15 15 14 14 15 16 16 16 17 18 19 19 19 19
11 11 12 12 12 13 14 14 15 15 16 15 15 15 15 15 15 15 15 14 15 15 15 16 16 15 15 15 14 14 14 14 14 15 15 16 16 17 18 19 19 20 19
11 12 12 12 12 14 14 14 15 15 15 15 15 15 15 15 15 16 15 15 15 16 16 16 16 15 15 15 15 14 14 14 15 15 16 16 17 18 18 19 19 20 20
12 12 12 12 12 13 14 14 14 15 15 15 15 16 16 16 17 16 16 16 16 16 16 16 15 15 15 15 15 15 15 15 16 16 16 17 17 17 18 18 19 20 20
12 13 13 13 13 13 14 15 15 15 15 15 15 16 16 16 16 16 16 16 16 16 16 16 17 17 16 16 16 16 16 16 17 17 17 18 18 18 18 18 18 19 20
12 13 14 14 14 15 15 16 16 16 16 17 17 17 16 16 16 16 17 17 16 16 16 17 17 17 17 17 17 16 16 17 17 17 17 18 18 17 17 17 17 18 19
13 13 14 15 15 16 16 16 17 17 17 18 18 18 18 18 17 17 17 17 18 17 17 17 17 18 17 17 18 18 17 16 16 17 17 18 18 18 17 17 16 17 18
13 14 15 16 16 17 17 17 18 18 19 18 18 18 18 18 18 18 18 18 19 19 19 19 18 19 19 19 19 18 18 18 18 18 18 18 18 18 18 18 17 18 18
14 15 16 16 17 18 18 18 19 19 19 18 18 18 19 19 18 18 18 19 19 19 19 20 20 20 19 19 19 19 19 19 19 18 18 18 18 17 17 17 17 19 18
14 15 16 17 17 17 18 18 19 19 19 19 19 19 19 19 19 19 19 19 20 20 20 21 21 20 20 20 20 20 20 20 19 19 19 19 19 18 18 18 18 19 19
Wind_Direction
194 189 191 197 196 197 209 213 215 216 215 215 217 217 224 221 220 222 219 216 225 233 237 242 243 240 245 249 251 251 250 253 259 263 267 268 266 267 270 274 276 273 269
209 210 210 212 209 212 226 227 224 227 225 223 226 227 230 232 235 238 238 234 234 239 246 251 253 245 247 250 254 254 255 256 260 261 264 265 265 267 270 272 271 269 265
223 223 225 225 223 226 231 232 232 231 231 233 233 233 238 239 240 242 247 246 249 253 251 255 256 252 251 253 256 256 257 259 261 262 262 261 264 268 270 271 269 268 268
228 230 232 233 236 238 240 242 241 243 241 239 237 239 244 244 245 250 254 256 258 265 266 263 262 261 261 260 260 258 258 259 262 263 262 262 264 266 267 267 267 267 268
236 237 237 237 238 240 243 244 249 255 252 246 244 248 249 251 250 254 258 264 267 272 274 267 264 265 268 266 264 263 262 261 262 265 266 264 265 265 266 267 268 267 267
240 241 240 240 240 242 245 247 252 254 252 251 251 254 253 253 253 255 259 264 269 270 274 269 267 270 270 270 270 267 265 262 264 265 265 266 265 264 266 267 267 267 267
242 244 242 242 244 243 244 249 254 255 253 253 255 259 261 259 257 256 261 264 268 272 269 266 267 271 272 272 272 270 268 264 264 268 268 266 266 266 266 266 267 266 265
248 247 243 245 246 244 247 251 255 256 257 260 260 257 260 262 261 263 264 264 267 271 273 269 269 268 269 271 271 272 272 269 265 266 269 268 266 265 265 264 264 264 264
252 250 248 248 249 249 252 255 255 257 260 263 262 258 261 265 267 269 269 267 269 269 272 274 273 271 270 271 272 271 273 273 270 269 269 267 265 265 265 265 265 265 263
253 252 250 249 250 252 254 256 258 259 262 261 260 260 262 267 265 265 266 267 270 270 272 274 276 277 276 276 276 276 275 274 274 273 270 269 268 268 266 265 265 265 264
254 252 251 250 253 256 256 256 259 259 259 258 259 261 263 264 263 262 264 267 270 272 274 275 274 276 279 281 280 279 277 276 275 272 270 271 270 271 270 267 266 264 264
256 256 255 253 254 258 259 259 260 258 259 259 262 263 264 264 262 262 264 267 270 271 273 276 276 275 279 280 280 279 278 275 274 271 271 270 270 271 271 268 267 266 264
255 256 259 258 259 260 260 261 260 258 258 261 264 264 266 266 265 264 265 268 269 271 273 276 277 277 279 278 278 277 277 275 273 269 268 269 269 270 270 268 267 266 263
255 257 258 260 261 262 260 260 260 258 259 260 262 263 266 267 266 266 267 268 270 272 274 276 274 276 278 278 278 278 278 278 275 270 268 268 268 268 268 267 265 264 263
256 257 256 257 261 262 262 260 260 260 262 263 263 264 265 266 267 268 268 267 270 273 274 275 273 275 276 277 278 278 279 279 277 270 268 266 266 267 268 270 267 265 263
257 258 258 257 260 262 263 264 263 262 263 265 264 263 264 265 265 267 268 268 271 273 275 277 274 274 275 278 279 280 281 279 276 272 268 268 268 269 270 270 269 266 265
260 261 260 260 259 261 262 264 266 267 267 267 266 265 265 266 265 267 268 269 272 272 275 277 275 273 275 278 279 280 280 278 275 273 268 266 268 270 272 271 268 264 264
262 265 267 266 266 265 267 269 269 270 269 268 267 266 265 266 267 268 269 271 273 275 275 277 274 274 275 278 278 279 279 277 275 274 268 266 269 269 269 269 268 267 265
262 264 267 270 269 269 271 270 269 269 269 269 270 269 268 267 268 269 269 273 274 276 276 278 274 275 276 276 276 276 277 277 275 274 271 269 270 271 270 268 267 266 263
264 265 267 271 273 274 273 272 274 271 269 270 271 270 270 268 268 269 271 274 275 277 277 277 276 274 275 275 276 275 276 276 275 272 272 271 271 272 271 269 268 265 264
267 268 269 272 275 277 274 273 276 275 272 271 273 274 272 271 269 269 271 274 276 278 279 278 278 275 276 276 276 276 277 279 280 278 275 273 273 274 275 274 271 269 267
271 271 273 272 274 277 276 276 275 275 275 273 275 277 275 273 273 272 272 273 274 277 278 279 279 277 277 276 275 276 276 278 278 278 274 271 272 275 276 274 275 271 268
272 272 274 276 275 277 278 277 277 277 277 276 276 278 277 275 275 274 273 272 274 275 275 276 278 277 276 275 275 277 277 277 278 279 277 275 275 275 274 274 275 274 271
272 272 273 276 277 278 280 279 280 279 279 277 276 275 276 274 273 272 272 272 274 274 274 276 277 276 276 276 275 276 278 279 279 279 278 277 276 276 275 272 274 275 271
273 274 276 278 279 280 281 282 281 279 277 277 276 275 274 273 272 269 269 271 273 273 274 275 275 275 276 278 277 276 277 279 279 278 278 278 278 278 277 273 273 273 270
277 276 279 281 283 284 284 284 283 281 279 277 276 276 275 274 273 271 270 271 272 273 273 274 274 274 277 278 278 276 276 277 279 277 277 278 277 275 274 271 271 271 269